Location: Eenumerhoogte
(53.3420°N, 6.7843°E)
Time: 21:53:14
(UTC+00:00)

Cosmos 1842 - Pass Details

Date: 15 May 2026
Orbit: 395 x 397 km, 82.5° (Epoch: 10 June)

Event Time Altitude Azimuth Distance (km) Brightness Sun altitude
Exits shadow 21:59:39 30° 120° (ESE) 752 3.6 -15.1°
Maximum altitude 22:00:17 33° 94° (E) 698 3.6 -15.1°
Drops below altitude 10° 22:03:09 10° 28° (NNE) 1,452 6.0 -15.3°
Sets 22:05:17 0° 19° (NNE) 2,316 7.4 -15.4°
